Location: Unspecified
(0.0000°N, 0.0000°E)
Time: 01:12:38
(UTC+00:00)

Vanguard 1 - All Passes

Search period start: 21 October 2017 00:00
Search period end: 31 October 2017 00:00
Orbit: 650 x 3834 km, 34.3° (Epoch: 20 October)

Date Brightness Start Highest point End Pass type
(mag) Time Alt. Az. Time Alt. Az. Time Alt. Az.
21 Oct - 01:10:10 10° NW 01:18:57 17° N 01:30:13 10° NNE visible
21 Oct - 03:37:24 10° NNW 03:52:52 23° NNE 04:09:15 10° ENE visible
21 Oct - 06:02:14 10° NW 06:24:34 48° NNE 06:41:32 10° E daylight
21 Oct - 08:29:17 10° WNW 08:51:33 78° SW 09:04:31 10° SE daylight
21 Oct - 11:03:02 10° W 11:14:38 23° SW 11:22:23 10° S daylight
21 Oct - 18:25:14 10° S 18:28:14 16° SE 18:31:48 10° ESE visible
21 Oct - 20:42:31 10° WSW 20:48:16 64° NNW 20:58:31 10° NE visible
21 Oct - 23:05:23 10° WNW 23:12:27 22° NNW 23:23:00 10° NNE night (unlit)
22 Oct - 01:33:28 10° NNW 01:42:34 16° N 01:53:49 10° NE visible
22 Oct - 03:58:57 10° NNW 04:16:18 27° NNE 04:33:52 10° ENE visible
22 Oct - 06:23:33 10° NW 06:46:48 59° NE 07:03:38 10° ESE daylight
22 Oct - 08:51:35 10° WNW 09:12:52 62° SW 09:25:21 10° SE daylight
22 Oct - 11:28:19 10° WSW 11:36:02 16° SW 11:41:50 10° S daylight
22 Oct - 18:44:57 10° SSW 18:49:05 29° SE 18:54:44 10° E visible
22 Oct - 21:03:54 10° W 21:09:42 42° NNW 21:19:41 10° NE visible
22 Oct - 23:28:26 10° NW 23:35:02 17° N 23:44:07 10° NNE visible
23 Oct - 01:56:10 10° NNW 02:06:18 17° N 02:18:35 10° NE visible
23 Oct - 04:20:14 10° NNW 04:39:21 33° NNE 04:57:50 10° E visible
23 Oct - 06:44:58 10° NW 07:08:46 72° NE 07:25:20 10° ESE daylight
23 Oct - 09:14:24 10° WNW 09:34:06 48° SW 09:45:58 10° SSE daylight
23 Oct - 19:05:18 10° SW 19:09:55 52° SE 19:16:51 10° ENE visible
23 Oct - 21:25:40 10° W 21:31:24 29° NNW 21:40:37 10° NNE visible
23 Oct - 23:51:57 10° NW 23:57:55 14° N 00:05:32 10° NNE visible
24 Oct - 02:18:09 10° NNW 02:30:00 19° NNE 02:44:06 10° NE visible
24 Oct - 04:41:23 10° NNW 05:02:03 41° NNE 05:21:09 10° E visible
24 Oct - 07:06:34 10° NW 07:30:32 87° NE 07:46:43 10° SE daylight
24 Oct - 09:37:49 10° W 09:55:22 36° SW 10:06:23 10° SSE daylight
24 Oct - 19:26:03 10° SW 19:30:52 89° NNW 19:38:27 10° NE visible
24 Oct - 21:47:57 10° WNW 21:53:22 21° NNW 22:01:19 10° NNE night (unlit)
25 Oct - 00:15:34 10° NNW 00:21:05 13° N 00:27:46 10° NNE visible
25 Oct - 02:39:37 10° NNW 02:53:29 22° NNE 03:09:38 10° ENE visible
25 Oct - 05:02:30 10° NW 05:24:27 50° NE 05:43:52 10° ESE visible
25 Oct - 07:28:26 10° WNW 07:52:08 77° SW 08:07:49 10° SE daylight
25 Oct - 10:02:00 10° W 10:16:46 27° SW 10:26:35 10° SSE daylight
25 Oct - 17:29:25 10° S 17:32:01 15° SE 17:34:50 10° ESE daylight
25 Oct - 19:47:11 10° WSW 19:52:01 52° NNW 19:59:40 10° NE visible
25 Oct - 22:10:52 10° NW 22:15:33 15° NNW 22:21:46 10° NNE night (unlit)
26 Oct - 00:38:34 10° NNW 00:44:27 13° N 00:51:31 10° NNE visible
26 Oct - 03:00:47 10° NNW 03:16:36 27° NNE 03:34:39 10° ENE visible
26 Oct - 05:23:40 10° NW 05:46:35 61° NE 06:06:04 10° ESE visible
26 Oct - 07:50:41 10° WNW 08:13:36 63° SW 08:28:43 10° SE daylight
26 Oct - 10:27:10 10° WSW 10:38:24 19° SW 10:46:30 10° S daylight
26 Oct - 17:49:10 10° SSW 17:53:00 28° SE 17:57:32 10° E daylight
26 Oct - 20:08:43 10° W 20:13:25 32° NNW 20:20:32 10° NNE visible
26 Oct - 22:34:45 10° NNW 22:38:01 12° N 22:41:53 10° NNE night (unlit)
27 Oct - 01:00:31 10° NNW 01:07:55 14° NNE 01:16:53 10° NE visible
27 Oct - 03:21:44 10° NNW 03:39:23 33° NNE 03:58:56 10° E visible
27 Oct - 05:44:58 10° NW 06:08:31 74° NE 06:27:52 10° ESE daylight
27 Oct - 08:13:25 10° WNW 08:35:04 50° SW 08:49:25 10° SSE daylight
27 Oct - 10:53:38 10° WSW 11:00:21 13° SSW 11:05:46 10° S daylight
27 Oct - 18:09:36 10° SW 18:13:55 55° SE 18:19:23 10° ENE visible
27 Oct - 20:30:46 10° WNW 20:35:03 21° NNW 20:41:03 10° NNE visible
28 Oct - 01:21:45 10° NNW 01:31:16 17° NNE 01:43:04 10° NE visible
28 Oct - 03:42:40 10° NNW 04:01:50 41° NE 04:22:29 10° E visible
28 Oct - 06:06:27 10° NW 06:30:19 89° NE 06:49:19 10° SE daylight
28 Oct - 08:36:46 10° W 08:56:34 39° SW 09:09:58 10° SSE daylight
28 Oct - 18:30:29 10° WSW 18:34:53 77° NW 18:40:45 10° NE visible
28 Oct - 20:53:36 10° NW 20:56:55 14° NNW 21:01:04 10° NNE visible
29 Oct - 01:42:38 10° NNW 01:54:23 21° NNE 02:09:08 10° ENE visible
29 Oct - 04:03:35 10° NW 04:24:01 51° NE 04:45:22 10° ESE visible
29 Oct - 06:28:13 10° WNW 06:52:00 77° SW 07:10:31 10° SE daylight
29 Oct - 09:00:52 10° W 09:18:15 30° SW 09:30:22 10° SSE daylight
29 Oct - 16:32:55 10° S 16:35:54 17° SSE 16:38:48 10° ESE daylight
29 Oct - 18:51:46 10° WSW 18:56:01 41° NNW 19:01:41 10° NE visible
30 Oct - 02:03:22 10° NNW 02:17:09 26° NNE 02:34:34 10° E visible
30 Oct - 04:24:37 10° NW 04:46:00 63° NE 05:07:43 10° ESE visible
30 Oct - 06:50:20 10° WNW 07:13:39 63° SW 07:31:30 10° SE daylight
30 Oct - 09:25:52 10° WSW 09:40:13 22° SW 09:50:37 10° SSE daylight
30 Oct - 16:52:55 10° SSW 16:57:02 31° SE 17:01:06 10° E daylight
30 Oct - 19:13:34 10° W 19:17:20 23° NNW 19:22:12 10° NNE visible
